{"data":{"norad_id":65885,"epoch":"2026-09-20T03:51:34.588800Z","epoch_age_seconds":135483,"freshness":"FRESH","line1":"1 65885U 25224D   26263.16081700  .00017003  00000+0  51312-3 0  9994","line2":"2 65885  53.1589 183.4499 0002154  91.0898 269.0351 15.34405862 54610","mean_motion":15.34405862,"eccentricity":0.0002154,"inclination_deg":53.1589,"raan_deg":183.4499,"arg_perigee_deg":91.0898,"mean_anomaly_deg":269.0351,"bstar":0.00051312,"rev_number":5461,"period_min":93.84739954806,"perigee_km":461.2123039284,"apogee_km":464.15933039803,"semimajor_km":6840.8228171632,"source":"CELESTRAK","updated_at":"2026-09-21T09:00:35.755420Z"}}